FW9176 Weather Reports


time (UTC)temp
F
wind
direction
speed
knots
gust
knots
rain 1hr
in
rain 24hr
in
rain mn
in
humidity
%
barometer
mb
20260901074603 80 142 0.0 1.7 0.00 0.25 0.00 73 1011.3
20260901073100 79 0 0.0 0.9 0.00 0.25 0.00 74 1011.3
20260901071558 80 0 0.0 0.9 0.00 0.25 0.00 73 1011.4
20260901064602 80 0 0.0 2.6 0.00 0.25 0.00 74 1011.1
20260901063115 80 0 0.0 0.9 0.00 0.25 0.00 74 1011.0
20260901061559 80 0 0.0 1.7 0.00 0.25 0.00 74 1010.8
20260901060106 80 0 0.0 0.9 0.00 0.25 0.00 74 1011.1
20260901054600 80 0 0.0 1.7 0.00 0.25 0.00 74 1011.1
20260901053101 80 182 0.0 1.7 0.00 0.25 0.00 75 1011.0
20260901051618 80 0 0.0 1.7 0.00 0.25 0.00 76 1010.9
20260901050104 79 145 0.0 2.6 0.00 0.25 0.00 77 1011.0
20260901044603 79 0 0.0 0.9 0.00 0.25 0.25 77 1011.1
20260901043105 79 0 0.0 0.9 0.00 0.25 0.25 78 1011.1
20260901041601 79 0 0.0 0.9 0.00 0.25 0.25 79 1011.3
20260901034609 78 157 0.0 1.7 0.00 0.27 0.25 81 1011.1
20260901033114 78 0 0.0 0.9 0.00 0.27 0.25 82 1011.2
20260901031604 78 0 0.0 0.0 0.00 0.27 0.25 84 1011.4
20260901030103 78 0 0.0 0.0 0.00 0.27 0.25 84 1011.4
20260901024607 78 0 0.0 0.0 0.00 0.27 0.25 84 1011.7
20260901023107 78 0 0.0 0.0 0.00 0.27 0.25 84 1011.9
20260901021606 78 0 0.0 0.0 0.00 0.27 0.25 82 1011.7
20260901014608 79 0 0.0 0.0 0.00 0.27 0.25 81 1011.5
20260901013108 79 0 0.0 0.9 0.00 0.27 0.25 81 1011.7
20260901011600 79 0 0.0 0.0 0.00 0.27 0.25 82 1011.6
20260901010115 79 0 0.0 0.0 0.00 0.27 0.25 82 1011.5
20260901004618 80 0 0.0 1.7 0.00 0.28 0.25 80 1011.6
20260901003104 80 0 0.0 0.9 0.00 0.28 0.25 83 1011.6
20260901001605 80 179 0.0 1.7 0.00 0.28 0.25 83 1011.0
20260901000109 80 0 0.0 1.7 0.00 0.28 0.25 85 1011.0
20260831234608 80 0 0.0 1.7 0.01 0.29 0.25 86 1011.3
20260831233101 81 0 0.0 0.0 0.08 0.29 0.25 86 1011.9
20260831231608 81 0 0.0 0.0 0.08 0.29 0.25 84 1011.4
20260831230106 82 0 0.0 0.0 0.08 0.29 0.25 80 1011.3
20260831224604 85 0 0.0 0.0 0.07 0.29 0.24 74 1011.3
20260831223105 86 0 0.0 0.0 0.00 0.22 0.17 68 1011.6
20260831221610 87 0 0.0 0.9 0.00 0.22 0.17 66 1011.5
20260831220105 88 0 0.0 3.5 0.00 0.22 0.17 65 1010.9
20260831214600 88 0 0.0 4.3 0.00 0.22 0.17 65 1010.7
20260831213057 88 0 0.9 3.5 0.00 0.22 0.17 66 1010.8
20260831211606 87 163 0.0 1.7 0.00 0.22 0.17 65 1011.1
20260831204557 88 279 0.0 4.3 0.00 0.26 0.17 63 1011.5
20260831203107 89 266 0.0 3.5 0.00 0.26 0.17 61 1011.6
20260831201601 89 277 0.0 1.7 0.00 0.26 0.17 60 1011.1
20260831194639 90 153 0.0 3.5 0.00 0.26 0.17 57 1011.2
20260831193101 90 102 0.9 4.3 0.00 0.26 0.17 58 1011.3
20260831191607 89 0 0.0 3.5 0.00 0.26 0.17 60 1011.4
20260831190120 88 208 0.9 6.1 0.00 0.26 0.17 60 1011.6
20260831184614 87 243 0.9 6.1 0.00 0.26 0.17 61 1011.4
20260831183100 87 112 1.7 9.6 0.00 0.26 0.17 61 1011.4
20260831181602 86 217 0.0 7.8 0.00 0.26 0.17 63 1011.4
20260831180106 84 225 3.5 9.6 0.00 0.26 0.17 64 1011.6
20260831174634 82 191 1.7 7.0 0.00 0.26 0.17 66 1011.9
20260831173100 79 123 0.9 8.7 0.00 0.26 0.17 71 1012.0
20260831171559 76 210 0.9 6.1 0.00 0.26 0.17 76 1012.3
20260831170105 75 186 1.7 4.3 0.00 0.26 0.17 81 1012.7
20260831164603 73 159 1.7 4.3 0.00 0.26 0.17 82 1013.0
20260831163107 72 177 0.9 3.5 0.00 0.26 0.17 84 1012.9
20260831161608 71 132 0.9 4.3 0.01 0.26 0.17 85 1013.1
20260831160104 71 126 0.0 3.5 0.01 0.26 0.17 86 1013.2
20260831154630 70 141 0.9 3.5 0.01 0.26 0.17 87 1013.3
20260831153118 70 136 0.9 4.3 0.01 0.26 0.17 86 1013.5
20260831151611 70 119 0.0 1.7 0.01 0.25 0.16 87 1014.0
20260831150103 70 98 0.0 3.5 0.03 0.25 0.16 87 1013.7
20260831144604 69 77 0.0 3.5 0.05 0.25 0.16 87 1013.5
20260831143102 69 129 0.0 2.6 0.05 0.25 0.16 87 1013.7
20260831141605 69 139 0.0 1.7 0.12 0.24 0.15 87 1013.8
20260831140104 69 0 0.0 0.9 0.12 0.22 0.13 87 1014.2
20260831134613 69 0 0.0 1.7 0.10 0.22 0.11 86 1014.0
20260831133109 70 108 0.0 0.9 0.10 0.22 0.11 85 1014.1
20260831131603 71 0 0.0 0.0 0.03 0.14 0.03 82 1014.0
20260831130109 72 0 0.0 0.0 0.01 0.12 0.01 79 1013.9
20260831124604 72 0 0.0 0.9 0.01 0.18 0.01 78 1013.5
20260831123105 73 0 0.0 0.0 0.01 0.18 0.01 76 1013.3
20260831121630 74 0 0.0 0.9 0.00 0.17 0.00 72 1012.8
20260831120104 74 0 0.0 2.6 0.00 0.17 0.00 71 1012.2
20260831114604 74 0 0.0 2.6 0.00 0.19 0.00 69 1012.0
20260831113110 74 160 0.0 2.6 0.00 0.19 0.00 68 1012.0
20260831111604 74 156 0.0 2.6 0.00 0.19 0.00 68 1011.7
20260831110100 74 162 0.0 1.7 0.00 0.19 0.00 69 1011.5
20260831104605 74 160 0.0 5.2 0.00 0.19 0.00 69 1011.7
20260831103110 74 199 0.9 3.5 0.00 0.19 0.00 70 1011.6
20260831101605 74 0 0.0 3.5 0.00 0.19 0.00 71 1011.7
20260831100105 74 167 0.0 3.5 0.00 0.19 0.00 71 1011.5
20260831094607 74 170 0.9 3.5 0.00 0.19 0.00 72 1011.5
20260831093152 74 170 0.0 3.5 0.00 0.19 0.00 72 1011.6
20260831091601 74 150 0.9 4.3 0.00 0.19 0.00 73 1011.8
20260831090101 74 153 0.0 3.5 0.00 0.19 0.00 74 1011.8
20260831084651 74 172 0.0 1.7 0.00 0.19 0.00 74 1012.0
20260831083110 74 153 0.0 3.5 0.00 0.19 0.00 74 1011.8
20260831081602 74 157 0.0 2.6 0.00 0.19 0.00 73 1011.8
20260831080123 75 0 0.9 2.6 0.00 0.19 0.00 72 1011.8